This demonstration page uses our WeatherBlox Daily Observations layout. Learn more.

Left ArrowRight Arrow

Hourly Observations for October 1, 2022

Temp ( °F °C ) Dew Point ( °F °C ) Humidity (%) Winds ( mph kmh ) Pressure ( in mb ) Visibility ( mi km ) Precip ( " mm )
12:53 am 00:53 Clear 64 17.8 45 7.2 50 50 SSE 13 20 29.97 1015 10 16 0.00 0.00
1:53 am 01:53 Clear 62 16.7 45 7.2 53 53 SSE 14 22 29.98 1015 10 16 0.00 0.00
2:53 am 02:53 Clear 61 16.1 45 7.2 56 56 SSE 12 19 29.99 1016 10 16 0.00 0.00
3:53 am 03:53 Clear 59 15 44 6.7 58 58 SSE 10 17 30.00 1016 10 16 0.00 0.00
4:53 am 04:53 Clear 57 13.9 44 6.7 62 62 SSE 7 11 30.01 1016 10 16 0.00 0.00
5:53 am 05:53 Clear 55 12.8 44 6.7 66 66 SSE 9 15 30.03 1017 10 16 0.00 0.00
6:53 am 06:53 Clear 54 12.2 43 6.1 66 66 SSE 8 13 30.05 1018 10 16 0.00 0.00
7:53 am 07:53 Sunny 53 11.7 42 5.6 66 66 SSE 10 17 30.07 1018 10 16 0.00 0.00
8:53 am 08:53 Sunny 55 12.8 42 5.6 62 62 SSE 13 20 30.08 1019 10 16 0.00 0.00
9:53 am 09:53 Sunny 63 17.2 43 6.1 48 48 S 12 19 30.08 1019 10 16 0.00 0.00
10:53 am 10:53 Sunny 68 20 42 5.6 39 39 S 14 22 30.08 1019 10 16 0.00 0.00
11:53 am 11:53 Sunny 75 23.9 45 7.2 34 34 S 13 20 30.07 1018 10 16 0.00 0.00
12:53 pm 12:53 Sunny 80 26.7 45 7.2 29 29 SSE 9 15 30.06 1018 10 16 0.00 0.00
1:53 pm 13:53 Sunny 80 26.7 44 6.7 28 28 SSE 17 28 30.06 1018 10 16 0.00 0.00
2:53 pm 14:53 Sunny 81 27.2 44 6.7 27 27 SSE 20 31 30.04 1017 10 16 0.00 0.00
3:53 pm 15:53 Sunny 82 27.8 43 6.1 25 25 SSE 16 26 30.04 1017 10 16 0.00 0.00
4:53 pm 16:53 Sunny 82 27.8 43 6.1 25 25 SSE 12 19 30.04 1017 10 16 0.00 0.00
5:53 pm 17:53 Sunny 80 26.7 42 5.6 26 26 SSE 13 20 30.05 1018 10 16 0.00 0.00
6:53 pm 18:53 Sunny 77 25 43 6.1 30 30 SSE 9 15 30.06 1018 10 16 0.00 0.00
7:53 pm 19:53 Clear 73 22.8 43 6.1 34 34 SE 8 13 30.09 1019 10 16 0.00 0.00
8:53 pm 20:53 Clear 69 20.6 42 5.6 37 37 SE 9 15 30.10 1019 10 16 0.00 0.00
9:53 pm 21:53 Clear 66 18.9 43 6.1 43 43 SSE 13 20 30.11 1020 10 16 0.00 0.00
10:53 pm 22:53 Clear 63 17.2 42 5.6 46 46 SSE 10 17 30.13 1020 10 16 0.00 0.00
11:53 pm 23:53 Clear 62 16.7 41 5 46 46 SSE 12 19 30.13 1020 10 16 0.00 0.00

Powered by AerisWeather